Regional Weather Roundup
Issued by NWS

Home | Current Version | Previous Version | Text Only | Print | Product List | Glossary On
Versions: 1 2 3 4 5 6 7 8 9 10 11 12 13 14 15 16 17 18 19 20 21 22 23 24 25 26 27 28 29 30 31 32 33 34 35 36 37 38 39 40 41 42 43 44 45 46 47 48 49 50
000
ASUS43 KMKX 262000
RWRWI

WISCONSIN REGIONAL WEATHER ROUNDUP
NATIONAL WEATHER SERVICE MILWAUKEE/SULLIVAN WI
200 PM CST SUN FEB 26 2017

NOTE: "FAIR" INDICATES FEW OR NO CLOUDS BELOW 12,000 FEET WITH NO
SIGNIFICANT WEATHER AND/OR OBSTRUCTIONS TO VISIBILITY.

WIZ001-002-006>008-014>016-023>028-262100-
NORTHWEST WISCONSIN

CITY           SKY/WX    TMP DP  RH WIND       PRES   REMARKS
SUPERIOR ARPT  SUNNY     25  10  52 NW13      29.79R WCI  14
ASHLAND        PTSUNNY   28  17  63 W21G30    29.76R WCI  15
HAYWARD        CLOUDY    30  16  56 NW9G23    29.74R WCI  22
SIREN          PTSUNNY   32  15  50 NW18G26   29.77R WCI  20
CUMBERLAND     CLOUDY    32  19  59 W18G25    29.73R WCI  20
RICE LAKE      CLOUDY    33  21  61 W13       29.76R WCI  24
CHETEK         PTSUNNY   32  22  65 W9        29.75S WCI  24
LADYSMITH      PTSUNNY   33  23  66 SW14G21   29.74S WCI  23
EAU CLAIRE     NOT AVBL
MENOMONIE      MOSUNNY   36  23  60 SW13      29.78S WCI  27
NEW RICHMOND   SUNNY     35  18  49 W14       29.77S WCI  25
OSCEOLA        PTSUNNY   36  20  53 NW15G24   29.80R WCI  27
$$

WIZ003>005-009-010-017-018-262100-
NORTH CENTRAL WISCONSIN

CITY           SKY/WX    TMP DP  RH WIND       PRES   REMARKS
MANITOWISH WTR LGT SNOW  27  23  82 W13G24    29.66R WCI  17
ARBOR VITAE    PTSUNNY   32  23  69 W14         N/A  WCI  22
WOODRUFF       PTSUNNY   32  23  69 W14         N/A  WCI  22
RHINELANDER    CLOUDY    31  20  63 W14       29.68R WCI  21
EAGLE RIVER    CLOUDY    29  19  66 W20G25    29.65R WCI  16
LAND O LAKES   FLURRIES  29  22  72 SW6G18    29.65S WCI  23
PHILLIPS       FLURRIES  30  22  71 W8        29.69R WCI  22
TOMAHAWK       CLOUDY    31  20  63 W12       29.70R WCI  22
MEDFORD        PTSUNNY   32  20  61 SW16G24   29.73R WCI  21
MERRILL        NOT AVBL
$$

WIZ029-030-035-036-043>047-262100-
CENTRAL WISCONSIN

CITY           SKY/WX    TMP DP  RH WIND       PRES   REMARKS
WAUSAU         CLOUDY    33  22  63 W13       29.73S WCI  24
MOSINEE        CLOUDY    34  21  60 SW17G24   29.75S WCI  23
MARSHFIELD     CLOUDY    34  19  54 W15       29.75R WCI  24
STEVENS POINT  PTSUNNY   34  19  52 W16G24    29.76S WCI  24
WAUPACA        SUNNY     41  20  42 SW17      29.78R
WAUTOMA        MOSUNNY   40  22  48 SW18G24   29.79S WCI  31
WISC RAPIDS    CLOUDY    38  18  44 W15G28    29.78S WCI  29
CAMP DOUGLAS   NOT AVBL
$$

WIZ011>013-019>022-031-037>040-048>050-262100-
NORTHEAST WISCONSIN

CITY           SKY/WX    TMP DP  RH WIND       PRES   REMARKS
ANTIGO         CLOUDY    31  21  66 W18G28    29.71S WCI  19
SHAWANO        CLOUDY    39  22  49 SW12G22   29.74F WCI  32
OCONTO         MOSUNNY   36  21  54 SW17G25   29.75S WCI  26
STURGEON BAY   SUNNY     35  23  61 SW15G24   29.75F WCI  25
GREEN BAY      SUNNY     38  25  59 SW13G21   29.77S WCI  30
MANITOWOC      NOT AVBL
APPLETON       MOSUNNY   37  21  52 SW16G22   29.76S WCI  28
CLINTONVILLE   SUNNY     37  21  52 SW17G24   29.76S WCI  28
OSHKOSH        SUNNY     37  24  59 SW15G22   29.79S WCI  28
$$

WIZ032>034-041-042-053>061-262100-
SOUTHWEST WISCONSIN

CITY           SKY/WX    TMP DP  RH WIND       PRES   REMARKS
LA CROSSE      PTSUNNY   40  25  55 SW14      29.83S WCI  32
SPARTA         SUNNY     40  24  54 W13G20    29.82S WCI  32
VIROQUA        MOSUNNY   37  25  62 SW12      29.83R WCI  29
BOSCOBEL       SUNNY     42  25  50 SW15G22   29.86F
PRAIRIE DU CHI SUNNY     41  26  55 SW10      29.86F
PLATTEVILLE    SUNNY     41  29  63 W16G24    29.87F
$$

WIZ056-057-062-063-064-067-068-262100-
SOUTH CENTRAL WISCONSIN

CITY           SKY/WX    TMP DP  RH WIND       PRES   REMARKS
REEDSBURG      SUNNY     39  26  59 SW15      29.83S WCI  30
BARABOO/DELLS  SUNNY     38  23  55 SW15G24   29.82S WCI  29
LONE ROCK      NOT AVBL
MINERAL POINT  SUNNY     41  30  65 SW15      29.85F
MADISON        MOSUNNY   39  25  57 W10G18    29.85F WCI  32
MIDDLETON      SUNNY     41  29  63 SW10G23   29.85F
WATERTOWN      SUNNY     39  27  61 SW18G29   29.85S WCI  30
MONROE         SUNNY     41  27  56 SW20G25   29.87F
JANESVILLE     MOSUNNY   45  25  45 SW20G25   29.88F
$$

WIZ051-052-058>065-066-070>072-262100-
SOUTHEAST WISCONSIN

CITY           SKY/WX    TMP DP  RH WIND       PRES   REMARKS
MILWAUKEE      MOSUNNY   44  23  43 SW20G32   29.87F
WAUKESHA       MOSUNNY   37  25  60 W15G25    29.86F WCI  28
MILWAUKEE/TIMM MOSUNNY   41  21  45 W20G29    29.86F
RACINE         PTSUNNY   44  23  43 SW14G32   29.89F
KENOSHA        SUNNY     44  25  47 W23G33    29.88S
FOND DU LAC    SUNNY     37  23  56 SW14G25   29.82R WCI  28
SHEBOYGAN      SUNNY     37  25  61 SW17G23   29.82S WCI  27
WEST BEND      SUNNY     37  28  70 SW16G22   29.83S WCI  28
JUNEAU         SUNNY     36  26  67 SW18G25   29.85F WCI  25
$$

LSZ147-162-262100-
LAKE SUPERIOR

STATION/POSITION TIME  TEMP    WIND        PRES    WAVE
                       AIR SEA DIR/SP/G            HT/PER
                 (UTC) (F)     (DEG/KT/KT) (MB)    (FT/S)
DEVILS ISLAND    1900   24     300/ 20/ 21 1007.1R
PORT WING        1940   25     280/ 17/ 21 1008.8R
SAXON HARBOR     1930   26     310/ 20/ 24 1006.8R
$$

LMZ867-665-643>646-262100-
LAKE MICHIGAN

STATION/POSITION TIME  TEMP    WIND        PRES    WAVE
                       AIR SEA DIR/SP/G            HT/PER
                 (UTC) (F)     (DEG/KT/KT) (MB)    (FT/S)
CHAMBERS ISLAND  1940   36     190/  8/ 16 1006.4F
NORTHPORT PIER   1940   35     220/ 12/ 21 1007.1S
SISTER BAY       1905   37        CALM       N/A
ALGOMA LAKESHORE 1826          240/ 20/ 29   N/A
KEWAUNEE LAKESHO 1930   36     230/ 11/ 19 1008.1F
SHEBOYGAN LAKESH 1900   36     240/ 22/ 26 1010.5F
PORT WASHINGTON  1940   42     250/ 13/ 29 1011.5R
MILWAUKEE LAKESH 1930   41     240/ 18/ 21   N/A
KENOSHA   LAKESH 1900   41     250/ 21/ 29 1012.9
$$

TC  - TEMPERATURE IN CELSIUS
VSB - VISIBILITY IN STATUTE MILES
WCI - WIND CHILL INDEX
HX  - HEAT INDEX





USA.gov is the U.S. government's official web portal to all federal, state and local government web resources and services.